User: anonymous   Login
Location: Cicognara
(44.9500°N, 10.4667°E)
Time: 21:41:33
(UTC+00:00)
Language:

CARTOSAT-1 - Orbit

View from above orbital plane
View from above orbital plane
View from above satellite
View from above satellite

Ground track
Ground track

The orbit data is extracted from the following two-line orbital elements,

1 28649U 05017A   21266.46727752  .00000123  00000-0  21068-4 0  9996
2 28649  97.7586 329.9560 0002137  53.1123 307.0287 14.83821681887164
Epoch (UTC): 23 September 2021 11:12:52
Eccentricity: 0.0002137
inclination: 97.7586°
perigee height: 616 km
apogee height: 619 km
right ascension of ascending node: 329.9560°
argument of perigee: 53.1123°
revolutions per day: 14.83821681
mean anomaly at epoch: 307.0287°
orbit number at epoch: 88716

The dashed part of the orbit path shows where the satellite is in the earth's shadow,  

DLR